QFA1206 YSCB-YMHB

Flight info

Callsign QFA1206
Flight time 1h 20m
Altitude 31000
Route CB Q215 TANTA DCT MAKRL DCT SUNOB H20 MOTRA W407 TASUM
Aircraft B738/M-SDE2E3FGHIRWXY/LB1

Departure

Time 2026-04-29 04:54
Airport Canberra Airport (YSCB)

Arrival

Time 2026-04-29 06:14
Airport Hobart International Airport (YMHB)
Time Latitude Longitude Altitude Speed Heading
2026-04-29 04:33 -35.30922 149.19122 1879 ft 0 kts 270°
2026-04-29 04:46 -35.30922 149.19134 1879 ft 8 kts 270°
2026-04-29 04:46 -35.30923 149.19167 1879 ft 7 kts 272°
2026-04-29 04:47 -35.30924 149.19200 1879 ft 8 kts 269°
2026-04-29 04:47 -35.30921 149.19232 1879 ft 8 kts 247°
2026-04-29 04:47 -35.30916 149.19244 1879 ft 9 kts 231°
2026-04-29 04:50 -35.30943 149.19240 1879 ft 10 kts 182°
2026-04-29 04:51 -35.31036 149.19240 1876 ft 16 kts 179°
2026-04-29 04:51 -35.31169 149.19241 1876 ft 22 kts 181°
2026-04-29 04:51 -35.31340 149.19240 1879 ft 27 kts 180°
2026-04-29 04:51 -35.31545 149.19239 1879 ft 32 kts 180°
2026-04-29 04:52 -35.31780 149.19239 1877 ft 28 kts 181°
2026-04-29 04:52 -35.31938 149.19245 1879 ft 20 kts 162°
2026-04-29 04:52 -35.32007 149.19371 1879 ft 18 kts 88°
2026-04-29 04:52 -35.31975 149.19443 1879 ft 10 kts 12°
2026-04-29 04:53 -35.31808 149.19446 1879 ft 51 kts 360°
2026-04-29 04:53 -35.31237 149.19446 1877 ft 112 kts 360°
2026-04-29 04:53 -35.30276 149.19446 1887 ft 161 kts
2026-04-29 04:53 -35.29127 149.19424 2338 ft 174 kts 356°
2026-04-29 04:54 -35.27894 149.19353 3003 ft 175 kts
2026-04-29 04:54 -35.26677 149.19550 3606 ft 186 kts
2026-04-29 04:54 -35.25341 149.19780 4098 ft 201 kts
2026-04-29 04:54 -35.23892 149.19996 4605 ft 217 kts
2026-04-29 04:55 -35.22321 149.20201 5151 ft 236 kts
2026-04-29 04:55 -35.20634 149.20405 5808 ft 253 kts
2026-04-29 04:55 -35.18823 149.20621 6441 ft 268 kts
2026-04-29 04:55 -35.16944 149.20849 7262 ft 275 kts
2026-04-29 04:56 -35.15022 149.21080 8111 ft 280 kts
2026-04-29 04:56 -35.13113 149.20639 8998 ft 285 kts 334°
2026-04-29 04:56 -35.11644 149.19003 9842 ft 292 kts 301°
2026-04-29 04:56 -35.11080 149.16638 10681 ft 296 kts 270°
2026-04-29 04:57 -35.11579 149.14221 11493 ft 298 kts 242°
2026-04-29 04:57 -35.12691 149.12008 11952 ft 315 kts 230°
2026-04-29 04:57 -35.14380 149.10215 12428 ft 330 kts 214°
2026-04-29 04:57 -35.16342 149.08634 12832 ft 347 kts 212°
2026-04-29 04:58 -35.18432 149.07040 13279 ft 360 kts 211°
2026-04-29 04:58 -35.20589 149.05430 13975 ft 366 kts 211°
2026-04-29 04:58 -35.22767 149.03788 14718 ft 369 kts 212°
2026-04-29 04:58 -35.24954 149.02111 15482 ft 372 kts 212°
2026-04-29 04:59 -35.27152 149.00410 16218 ft 376 kts 212°
2026-04-29 04:59 -35.29339 148.98718 16925 ft 378 kts 212°
2026-04-29 04:59 -35.31575 148.96996 17619 ft 381 kts 212°
2026-04-29 04:59 -35.33833 148.95263 18304 ft 384 kts 212°
2026-04-29 05:00 -35.36106 148.93517 18936 ft 387 kts 212°
2026-04-29 05:00 -35.38399 148.91752 19549 ft 391 kts 212°
2026-04-29 05:00 -35.40709 148.89969 20129 ft 394 kts 212°
2026-04-29 05:00 -35.43044 148.88166 20701 ft 398 kts 212°
2026-04-29 05:01 -35.45398 148.86348 21251 ft 402 kts 212°
2026-04-29 05:01 -35.47773 148.84515 21800 ft 404 kts 212°
2026-04-29 05:01 -35.50161 148.82669 22313 ft 408 kts 212°
2026-04-29 05:01 -35.52569 148.80805 22788 ft 411 kts 212°
2026-04-29 05:02 -35.54994 148.78927 23242 ft 414 kts 212°
2026-04-29 05:02 -35.57443 148.77029 23717 ft 417 kts 212°
2026-04-29 05:02 -35.59873 148.75144 24142 ft 420 kts 212°
2026-04-29 05:02 -35.62350 148.73222 24583 ft 422 kts 212°
2026-04-29 05:03 -35.64844 148.71285 25002 ft 425 kts 212°
2026-04-29 05:03 -35.67352 148.69336 25423 ft 427 kts 212°
2026-04-29 05:03 -35.69866 148.67380 25821 ft 429 kts 212°
2026-04-29 05:03 -35.72394 148.65413 26199 ft 431 kts 213°
2026-04-29 05:04 -35.74939 148.63430 26567 ft 433 kts 213°
2026-04-29 05:04 -35.77492 148.61439 26920 ft 435 kts 213°
2026-04-29 05:04 -35.80025 148.59463 27252 ft 437 kts 213°
2026-04-29 05:04 -35.82596 148.57455 27565 ft 439 kts 213°
2026-04-29 05:05 -35.85203 148.55474 27855 ft 441 kts 209°
2026-04-29 05:05 -35.88027 148.53970 28159 ft 444 kts 199°
2026-04-29 05:05 -35.91046 148.53132 28467 ft 447 kts 188°
2026-04-29 05:05 -35.94162 148.52892 28738 ft 450 kts 184°
2026-04-29 05:06 -35.97297 148.52762 29064 ft 450 kts 183°
2026-04-29 05:06 -36.00421 148.52671 29497 ft 448 kts 182°
2026-04-29 05:06 -36.03536 148.52577 29906 ft 447 kts 184°
2026-04-29 05:06 -36.06639 148.52459 30296 ft 445 kts 184°
2026-04-29 05:07 -36.09733 148.52323 30663 ft 445 kts 184°
2026-04-29 05:07 -36.12783 148.52188 31035 ft 444 kts 184°
2026-04-29 05:07 -36.15867 148.52061 31372 ft 444 kts 184°
2026-04-29 05:08 -36.22085 148.51822 31404 ft 449 kts 184°
2026-04-29 05:08 -36.28346 148.51573 31412 ft 449 kts 184°
2026-04-29 05:09 -36.34549 148.51323 31411 ft 444 kts 184°
2026-04-29 05:09 -36.40671 148.51077 31406 ft 442 kts 184°
2026-04-29 05:10 -36.46824 148.50830 31404 ft 442 kts 184°
2026-04-29 05:10 -36.52974 148.50583 31403 ft 442 kts 184°
2026-04-29 05:11 -36.59087 148.50336 31405 ft 442 kts 184°
2026-04-29 05:11 -36.65230 148.50088 31402 ft 442 kts 184°
2026-04-29 05:12 -36.71375 148.49840 31397 ft 442 kts 184°
2026-04-29 05:12 -36.76480 148.49633 31402 ft 441 kts 184°
2026-04-29 05:13 -36.82626 148.49384 31404 ft 441 kts 184°
2026-04-29 05:13 -36.89772 148.49093 31413 ft 442 kts 185°
2026-04-29 05:14 -36.94914 148.48884 31403 ft 441 kts 185°
2026-04-29 05:14 -37.01015 148.48635 31395 ft 442 kts 185°
2026-04-29 05:15 -37.07152 148.48385 31396 ft 441 kts 185°
2026-04-29 05:15 -37.13286 148.48134 31388 ft 440 kts 185°
2026-04-29 05:16 -37.19417 148.47883 31389 ft 441 kts 185°
2026-04-29 05:16 -37.25551 148.47631 31396 ft 441 kts 185°
2026-04-29 05:17 -37.31645 148.47381 31403 ft 441 kts 185°
2026-04-29 05:17 -37.37775 148.47129 31389 ft 441 kts 185°
2026-04-29 05:18 -37.43909 148.46876 31389 ft 440 kts 185°
2026-04-29 05:18 -37.50041 148.46623 31387 ft 441 kts 185°
2026-04-29 05:19 -37.56125 148.46371 31389 ft 441 kts 185°
2026-04-29 05:19 -37.62260 148.46117 31386 ft 441 kts 185°
2026-04-29 05:20 -37.68395 148.45863 31390 ft 440 kts 185°
2026-04-29 05:20 -37.74533 148.45607 31388 ft 441 kts 185°
2026-04-29 05:21 -37.80629 148.45354 31393 ft 441 kts 185°
2026-04-29 05:21 -37.86764 148.45099 31391 ft 441 kts 185°
2026-04-29 05:22 -37.92887 148.44843 31391 ft 440 kts 185°
2026-04-29 05:22 -37.99021 148.44586 31390 ft 441 kts 185°
2026-04-29 05:23 -38.05147 148.44329 31390 ft 440 kts 185°
2026-04-29 05:23 -38.11229 148.44074 31389 ft 440 kts 185°
2026-04-29 05:24 -38.17354 148.43816 31390 ft 440 kts 185°
2026-04-29 05:24 -38.23477 148.43559 31390 ft 440 kts 186°
2026-04-29 05:25 -38.29592 148.43301 31390 ft 439 kts 186°
2026-04-29 05:25 -38.35704 148.43042 31390 ft 440 kts 186°
2026-04-29 05:26 -38.41787 148.42785 31391 ft 440 kts 186°
2026-04-29 05:26 -38.47901 148.42527 31390 ft 440 kts 185°
2026-04-29 05:27 -38.54030 148.43418 31394 ft 446 kts 174°
2026-04-29 05:27 -38.63150 148.45582 31390 ft 446 kts 173°
2026-04-29 05:28 -38.69249 148.47015 31389 ft 445 kts 174°
2026-04-29 05:28 -38.75347 148.48438 31389 ft 445 kts 174°
2026-04-29 05:29 -38.81433 148.49878 31390 ft 445 kts 174°
2026-04-29 05:29 -38.87517 148.51315 31390 ft 445 kts 174°
2026-04-29 05:30 -38.93563 148.52743 31390 ft 444 kts 174°
2026-04-29 05:30 -38.99644 148.54184 31390 ft 444 kts 174°
2026-04-29 05:31 -39.05721 148.55627 31390 ft 444 kts 174°
2026-04-29 05:31 -39.11804 148.57073 31394 ft 444 kts 174°
2026-04-29 05:32 -39.17876 148.58519 31398 ft 444 kts 174°
2026-04-29 05:32 -39.23957 148.59970 31398 ft 444 kts 174°
2026-04-29 05:33 -39.29993 148.61413 31398 ft 444 kts 174°
2026-04-29 05:33 -39.36065 148.62867 31398 ft 444 kts 174°
2026-04-29 05:34 -39.42141 148.64325 31398 ft 443 kts 174°
2026-04-29 05:34 -39.48208 148.65782 31399 ft 443 kts 174°
2026-04-29 05:35 -39.54271 148.67241 31399 ft 443 kts 174°
2026-04-29 05:35 -39.60338 148.68704 31398 ft 443 kts 174°
2026-04-29 05:36 -39.66371 148.70162 31399 ft 443 kts 174°
2026-04-29 05:36 -39.72434 148.71629 31399 ft 443 kts 174°
2026-04-29 05:37 -39.78493 148.73098 31398 ft 443 kts 174°
2026-04-29 05:37 -39.84555 148.74570 31398 ft 443 kts 174°
2026-04-29 05:38 -39.90624 148.76047 31398 ft 443 kts 174°
2026-04-29 05:38 -39.96649 148.77515 31398 ft 443 kts 174°
2026-04-29 05:39 -40.02714 148.78856 31398 ft 438 kts 181°
2026-04-29 05:39 -40.08627 148.78007 31406 ft 423 kts 200°
2026-04-29 05:40 -40.14241 148.75832 31400 ft 424 kts 201°
2026-04-29 05:40 -40.19890 148.73568 31400 ft 424 kts 201°
2026-04-29 05:41 -40.25556 148.71357 31406 ft 424 kts 201°
2026-04-29 05:41 -40.31218 148.69136 31408 ft 424 kts 201°
2026-04-29 05:42 -40.36867 148.66902 31407 ft 424 kts 201°
2026-04-29 05:42 -40.42480 148.64686 31406 ft 424 kts 201°
2026-04-29 05:43 -40.48129 148.62453 31407 ft 424 kts 201°
2026-04-29 05:43 -40.53783 148.60211 31408 ft 424 kts 201°
2026-04-29 05:44 -40.59406 148.57978 31408 ft 424 kts 201°
2026-04-29 05:44 -40.65054 148.55732 31408 ft 424 kts 201°
2026-04-29 05:45 -40.70704 148.53481 31408 ft 424 kts 201°
2026-04-29 05:45 -40.76351 148.51227 31407 ft 424 kts 201°
2026-04-29 05:46 -40.81999 148.48969 31408 ft 424 kts 201°
2026-04-29 05:46 -40.87608 148.46722 31409 ft 424 kts 201°
2026-04-29 05:47 -40.93256 148.44455 31407 ft 424 kts 201°
2026-04-29 05:47 -40.98905 148.42184 31408 ft 424 kts 201°
2026-04-29 05:48 -41.04531 148.39919 31408 ft 424 kts 201°
2026-04-29 05:48 -41.10167 148.37646 31408 ft 423 kts 201°
2026-04-29 05:49 -41.15798 148.35369 31408 ft 423 kts 201°
2026-04-29 05:49 -41.21425 148.33091 31408 ft 423 kts 201°
2026-04-29 05:50 -41.27057 148.30807 31403 ft 423 kts 201°
2026-04-29 05:50 -41.32650 148.28510 31406 ft 422 kts 204°
2026-04-29 05:51 -41.35119 148.26533 31428 ft 412 kts 225°
2026-04-29 05:51 -41.36979 148.23663 31441 ft 410 kts 233°
2026-04-29 05:51 -41.40656 148.17834 31416 ft 412 kts 228°
2026-04-29 05:52 -41.44657 148.12476 31410 ft 412 kts 227°
2026-04-29 05:52 -41.48639 148.06869 31415 ft 411 kts 229°
2026-04-29 05:53 -41.52478 148.01302 31420 ft 410 kts 229°
2026-04-29 05:53 -41.56401 147.95747 31408 ft 411 kts 229°
2026-04-29 05:54 -41.60310 147.90183 31418 ft 410 kts 229°
2026-04-29 05:54 -41.64212 147.84584 30841 ft 414 kts 229°
2026-04-29 05:55 -41.66149 147.81810 30253 ft 413 kts 229°
2026-04-29 05:55 -41.68105 147.79010 29652 ft 408 kts 229°
2026-04-29 05:55 -41.70027 147.76258 29102 ft 400 kts 229°
2026-04-29 05:55 -41.71907 147.73560 28540 ft 393 kts 229°
2026-04-29 05:56 -41.73752 147.70906 27993 ft 386 kts 229°
2026-04-29 05:56 -41.75569 147.68289 27437 ft 380 kts 229°
2026-04-29 05:56 -41.77357 147.65712 26899 ft 375 kts 229°
2026-04-29 05:56 -41.79118 147.63173 26357 ft 370 kts 229°
2026-04-29 05:57 -41.80858 147.60664 25816 ft 365 kts 229°
2026-04-29 05:57 -41.82579 147.58179 25280 ft 361 kts 229°
2026-04-29 05:57 -41.84277 147.55725 24735 ft 357 kts 229°
2026-04-29 05:57 -41.85957 147.53294 24206 ft 354 kts 229°
2026-04-29 05:58 -41.87623 147.50882 23671 ft 350 kts 229°
2026-04-29 05:58 -41.89250 147.48525 23136 ft 347 kts 229°
2026-04-29 05:58 -41.90887 147.46151 22599 ft 344 kts 229°
2026-04-29 05:58 -41.92507 147.43802 22064 ft 341 kts 230°
2026-04-29 05:59 -41.94112 147.41470 21532 ft 339 kts 230°
2026-04-29 05:59 -41.95706 147.39153 21005 ft 336 kts 230°
2026-04-29 05:59 -41.97286 147.36856 20468 ft 333 kts 230°
2026-04-29 05:59 -41.98850 147.34580 19930 ft 330 kts 230°
2026-04-29 06:00 -42.00401 147.32319 19392 ft 327 kts 230°
2026-04-29 06:00 -42.01938 147.30079 18856 ft 324 kts 230°
2026-04-29 06:00 -42.03456 147.27865 18322 ft 320 kts 230°
2026-04-29 06:00 -42.04959 147.25670 17783 ft 317 kts 230°
2026-04-29 06:01 -42.06443 147.23502 17262 ft 313 kts 230°
2026-04-29 06:01 -42.07916 147.21347 16748 ft 314 kts 230°
2026-04-29 06:01 -42.09398 147.19175 16207 ft 316 kts 230°
2026-04-29 06:01 -42.10888 147.16990 15662 ft 318 kts 230°
2026-04-29 06:02 -42.12388 147.14792 15108 ft 319 kts 230°
2026-04-29 06:02 -42.13873 147.12614 14564 ft 320 kts 229°
2026-04-29 06:02 -42.15494 147.10490 14009 ft 324 kts 219°
2026-04-29 06:02 -42.17456 147.09057 13455 ft 329 kts 202°
2026-04-29 06:03 -42.19766 147.08511 12763 ft 340 kts 183°
2026-04-29 06:03 -42.22122 147.08859 11912 ft 351 kts 174°
2026-04-29 06:03 -42.24563 147.09449 10979 ft 361 kts 172°
2026-04-29 06:03 -42.26999 147.10121 10450 ft 349 kts 171°
2026-04-29 06:04 -42.29295 147.10744 10308 ft 325 kts 172°
2026-04-29 06:04 -42.31445 147.11279 10177 ft 303 kts 173°
2026-04-29 06:04 -42.33463 147.11751 10039 ft 286 kts 173°
2026-04-29 06:04 -42.35419 147.12205 9782 ft 284 kts 173°
2026-04-29 06:05 -42.37347 147.12664 9427 ft 278 kts 173°
2026-04-29 06:05 -42.39240 147.13125 9069 ft 276 kts 172°
2026-04-29 06:05 -42.41117 147.13586 8793 ft 272 kts 172°
2026-04-29 06:05 -42.42968 147.14039 8546 ft 270 kts 172°
2026-04-29 06:06 -42.44822 147.14491 8303 ft 272 kts 172°
2026-04-29 06:06 -42.46664 147.14939 8078 ft 273 kts 172°
2026-04-29 06:06 -42.48557 147.15400 7826 ft 273 kts 172°
2026-04-29 06:06 -42.50395 147.15850 7610 ft 271 kts 172°
2026-04-29 06:07 -42.52259 147.16318 7344 ft 266 kts 169°
2026-04-29 06:07 -42.53946 147.17215 7128 ft 264 kts 156°
2026-04-29 06:07 -42.55576 147.18314 6883 ft 263 kts 155°
2026-04-29 06:07 -42.57197 147.19436 6650 ft 260 kts 154°
2026-04-29 06:08 -42.58804 147.20559 6410 ft 260 kts 154°
2026-04-29 06:08 -42.60410 147.21679 6148 ft 259 kts 155°
2026-04-29 06:08 -42.62007 147.22788 5932 ft 258 kts 154°
2026-04-29 06:08 -42.63507 147.24106 5730 ft 257 kts 142°
2026-04-29 06:09 -42.64834 147.25747 5498 ft 258 kts 136°
2026-04-29 06:09 -42.66093 147.27466 5253 ft 256 kts 135°
2026-04-29 06:09 -42.67343 147.29167 5026 ft 253 kts 136°
2026-04-29 06:09 -42.68581 147.30836 4817 ft 244 kts 136°
2026-04-29 06:10 -42.69725 147.32379 4663 ft 221 kts 136°
2026-04-29 06:10 -42.70791 147.33816 4332 ft 211 kts 136°
2026-04-29 06:10 -42.71829 147.35217 3842 ft 208 kts 136°
2026-04-29 06:10 -42.72839 147.36581 3352 ft 202 kts 135°
2026-04-29 06:11 -42.73805 147.37887 2833 ft 189 kts 135°
2026-04-29 06:11 -42.74710 147.39111 2390 ft 176 kts 136°
2026-04-29 06:11 -42.75533 147.40224 2035 ft 158 kts 136°
2026-04-29 06:11 -42.76277 147.41230 1846 ft 147 kts 136°
2026-04-29 06:12 -42.76973 147.42172 1653 ft 140 kts 135°
2026-04-29 06:12 -42.77654 147.43093 1466 ft 137 kts 135°
2026-04-29 06:12 -42.78323 147.43999 1296 ft 134 kts 135°
2026-04-29 06:12 -42.78972 147.44878 1115 ft 130 kts 135°
2026-04-29 06:13 -42.79607 147.45737 945 ft 128 kts 135°
2026-04-29 06:13 -42.80231 147.46583 779 ft 126 kts 135°
2026-04-29 06:13 -42.80847 147.47419 618 ft 124 kts 135°
2026-04-29 06:13 -42.81463 147.48254 447 ft 126 kts 135°
2026-04-29 06:14 -42.82093 147.49109 280 ft 129 kts 135°
2026-04-29 06:14 -42.82735 147.49981 100 ft 130 kts 135°
2026-04-29 06:14 -42.83330 147.50796 23 ft 98 kts 134°
2026-04-29 06:14 -42.83621 147.51188 23 ft 20 kts 133°
2026-04-29 06:15 -42.83729 147.51290 21 ft 19 kts 169°
2026-04-29 06:15 -42.83839 147.51227 22 ft 16 kts 225°
2026-04-29 06:15 -42.83843 147.51116 21 ft 13 kts 314°
2026-04-29 06:15 -42.83801 147.51057 21 ft 13 kts 314°
2026-04-29 06:16 -42.83709 147.50935 21 ft 14 kts 315°
2026-04-29 06:16 -42.83688 147.50833 21 ft 12 kts 240°
2026-04-29 06:16 -42.83703 147.50785 21 ft 7 kts 248°
2026-04-29 06:16 -42.83686 147.50728 23 ft 7 kts 287°
2026-04-29 06:17 -42.83708 147.50673 21 ft 4 kts 228°
2026-04-29 06:17 -42.83711 147.50669 21 ft 0 kts 227°